Suffolk, VA

11:26 PM EST on December 03, 2016 (GMT -0500)
Suffolk Municipal

Weather History for KSFQ - April, 2013

Change the Weather History Date:

Thursday, April 11, 2013

  Actual Average Record
Temperature  
Mean Temperature 74 °F -  
Max Temperature 84 °F 67 °F 87 °F (1977)
Min Temperature 64 °F 42 °F 31 °F (1960)
Cooling Degree Days 9    
Growing Degree Days 24 (Base 50)    
Moisture  
Dew Point 61 °F    
Average Humidity 67    
Maximum Humidity 88    
Minimum Humidity 42    
Precipitation  
Precipitation 0.00 in - - ()
Sea Level Pressure  
Sea Level Pressure 29.90 in    
Wind  
Wind Speed 11 mph (SSW)    
Max Wind Speed 20 mph    
Max Gust Speed 25 mph    
Visibility 10 miles    
Events      
Averages and records for this station are not official NWS values.
T = Trace of Precipitation, MM = Missing Value Source: NWS Daily Summary

Daily Weather History Graph

Daily Weather History Graph

Search for Another Location

Airport or City:

Trip Planner

Search our weather history database for the weather conditions in past years. The results will help you decide how hot, cold, wet, or windy it might be!

Date:

Astronomy

Apr. 11, 2013 Rise Set
Actual Time 6:37 AM EDT 7:37 PM EDT
Civil Twilight 6:11 AM EDT 8:04 PM EDT
Nautical Twilight 5:39 AM EDT 8:35 PM EDT
Astronomical Twilight 5:07 AM EDT 9:08 PM EDT
Moon 7:10 AM EDT (4/11) 9:06 PM EDT (4/11)
Length of Visible Light 13h 52m
Length of Day
12h 59m
New Moon, 2% of the Moon is Illuminated
Apr 11
New Moon
Apr 18
First Quarter
Apr 25
Full
May 2
Last Quarter
May 9
New

Hourly Weather History & Observations

Time (EDT) Temp. Heat Index Dew Point Humidity Pressure Visibility Wind Dir Wind Speed Gust Speed Precip Events Conditions
12:15 AM 71.6 °F - 62.6 °F 73% 29.95 in 10.0 mi SSW 11.5 mph 16.1 mph N/A   Clear
12:35 AM 71.6 °F - 62.6 °F 73% 29.94 in 10.0 mi SSW 10.4 mph 17.3 mph N/A   Clear
12:55 AM 71.6 °F - 62.6 °F 73% 29.95 in 10.0 mi SSW 11.5 mph - N/A   Clear
1:15 AM 71.6 °F - 62.6 °F 73% 29.95 in 10.0 mi SSW 9.2 mph - N/A   Clear
1:35 AM 69.8 °F - 62.6 °F 78% 29.95 in 10.0 mi SSW 10.4 mph - N/A   Clear
1:55 AM 69.8 °F - 60.8 °F 73% 29.94 in 10.0 mi SSW 10.4 mph 19.6 mph N/A   Clear
2:15 AM 69.8 °F - 60.8 °F 73% 29.93 in 10.0 mi SSW 9.2 mph - N/A   Clear
2:35 AM 69.8 °F - 59.0 °F 68% 29.92 in 10.0 mi SSW 10.4 mph - N/A   Clear
2:55 AM 68.0 °F - 59.0 °F 73% 29.93 in 10.0 mi SSW 10.4 mph - N/A   Clear
3:15 AM 68.0 °F - 57.2 °F 68% 29.93 in 10.0 mi SW 12.7 mph - N/A   Clear
3:35 AM 66.2 °F - 57.2 °F 73% 29.93 in 10.0 mi SSW 10.4 mph - N/A   Clear
3:55 AM 66.2 °F - 57.2 °F 73% 29.93 in 10.0 mi SW 8.1 mph - N/A   Clear
4:15 AM 66.2 °F - 57.2 °F 73% 29.93 in 10.0 mi SW 9.2 mph - N/A   Clear
4:35 AM 66.2 °F - 57.2 °F 73% 29.92 in 10.0 mi SSW 10.4 mph - N/A   Clear
4:55 AM 66.2 °F - 57.2 °F 73% 29.93 in 10.0 mi SW 9.2 mph - N/A   Clear
5:15 AM 64.4 °F - 57.2 °F 77% 29.93 in 10.0 mi SW 9.2 mph - N/A   Clear
5:35 AM 64.4 °F - 57.2 °F 77% 29.93 in 10.0 mi SSW 8.1 mph - N/A   Clear
5:55 AM 64.4 °F - 59.0 °F 83% 29.94 in 10.0 mi SSW 8.1 mph - N/A   Clear
6:15 AM 64.4 °F - 59.0 °F 83% 29.94 in 10.0 mi SSW 9.2 mph - N/A   Clear
6:35 AM 64.4 °F - 60.8 °F 88% 29.95 in 10.0 mi SW 10.4 mph - N/A   Clear
6:55 AM 64.4 °F - 60.8 °F 88% 29.95 in 10.0 mi SSW 10.4 mph - N/A   Clear
7:15 AM 64.4 °F - 60.8 °F 88% 29.96 in 10.0 mi SW 9.2 mph - N/A   Clear
7:35 AM 64.4 °F - 60.8 °F 88% 29.96 in 10.0 mi SSW 10.4 mph - N/A   Clear
7:55 AM 66.2 °F - 62.6 °F 88% 29.97 in 10.0 mi SW 11.5 mph 16.1 mph N/A   Clear
8:15 AM 66.2 °F - 62.6 °F 88% 29.97 in 10.0 mi SW 11.5 mph 16.1 mph N/A   Clear
8:35 AM 68.0 °F - 62.6 °F 83% 29.97 in 10.0 mi SW 11.5 mph 21.9 mph N/A   Clear
8:55 AM 69.8 °F - 62.6 °F 78% 29.97 in 10.0 mi SW 13.8 mph 21.9 mph N/A   Clear
9:35 AM 71.6 °F - 62.6 °F 73% 29.97 in 10.0 mi WSW 16.1 mph 23.0 mph N/A   Clear
9:55 AM 73.4 °F - 62.6 °F 69% 29.97 in 10.0 mi WSW 19.6 mph 23.0 mph N/A   Clear
10:15 AM 73.4 °F - 62.6 °F 69% 29.96 in 10.0 mi SW 13.8 mph - N/A   Clear
10:35 AM 75.2 °F - 62.6 °F 65% 29.97 in 10.0 mi SW 13.8 mph 19.6 mph N/A   Clear
10:55 AM 75.2 °F - 62.6 °F 65% 29.97 in 10.0 mi SW 16.1 mph 24.2 mph N/A   Clear
11:15 AM 77.0 °F - 64.4 °F 65% 29.97 in 10.0 mi WSW 17.3 mph 23.0 mph N/A   Clear
11:35 AM 77.0 °F - 64.4 °F 65% 29.96 in 10.0 mi SW 15.0 mph 20.7 mph N/A   Clear
11:55 AM 78.8 °F - 62.6 °F 57% 29.95 in 10.0 mi SW 15.0 mph - N/A   Clear
12:15 PM 78.8 °F - 64.4 °F 61% 29.94 in 10.0 mi SW 16.1 mph 20.7 mph N/A   Clear
12:35 PM 80.6 °F 82.3 °F 64.4 °F 58% 29.93 in 10.0 mi South 17.3 mph - N/A   Clear
1:15 PM 80.6 °F 81.8 °F 62.6 °F 54% 29.92 in 10.0 mi SSW 12.7 mph 24.2 mph N/A   Clear
1:35 PM 80.6 °F 81.5 °F 60.8 °F 51% 29.92 in 10.0 mi SSW 18.4 mph 23.0 mph N/A   Clear
1:55 PM 82.4 °F 82.9 °F 60.8 °F 48% 29.90 in 10.0 mi SW 11.5 mph 21.9 mph N/A   Clear
2:15 PM 82.4 °F 82.9 °F 60.8 °F 48% 29.89 in 10.0 mi SSW 12.7 mph 23.0 mph N/A   Clear
2:35 PM 82.4 °F 82.0 °F 57.2 °F 42% 29.89 in 10.0 mi SSW 15.0 mph 19.6 mph N/A   Clear
2:55 PM 84.2 °F 84.4 °F 60.8 °F 45% 29.88 in 10.0 mi SW 10.4 mph 21.9 mph N/A   Clear
3:15 PM 84.2 °F 83.8 °F 59.0 °F 42% 29.87 in 10.0 mi SSW 17.3 mph 21.9 mph N/A   Clear
3:35 PM 84.2 °F 84.4 °F 60.8 °F 45% 29.86 in 10.0 mi SSW 15.0 mph 23.0 mph N/A   Clear
3:55 PM 84.2 °F 84.4 °F 60.8 °F 45% 29.85 in 10.0 mi SW 13.8 mph 25.3 mph N/A   Clear
4:15 PM 84.2 °F 84.4 °F 60.8 °F 45% 29.84 in 10.0 mi SW 16.1 mph 20.7 mph N/A   Clear
4:35 PM 84.2 °F 83.8 °F 59.0 °F 42% 29.83 in 10.0 mi SSW 15.0 mph 21.9 mph N/A   Clear
4:55 PM 82.4 °F 82.5 °F 59.0 °F 45% 29.83 in 10.0 mi SW 15.0 mph 23.0 mph N/A   Clear
5:15 PM 82.4 °F 82.5 °F 59.0 °F 45% 29.83 in 10.0 mi SW 11.5 mph 23.0 mph N/A   Clear
5:35 PM 82.4 °F 82.5 °F 59.0 °F 45% 29.83 in 10.0 mi SW 11.5 mph 17.3 mph N/A   Clear
5:55 PM 82.4 °F 82.5 °F 59.0 °F 45% 29.84 in 10.0 mi SW 10.4 mph - N/A   Clear
6:15 PM 80.6 °F 81.5 °F 60.8 °F 51% 29.84 in 10.0 mi SSW 6.9 mph - N/A   Clear
6:35 PM 80.6 °F 81.5 °F 60.8 °F 51% 29.83 in 10.0 mi SSW 8.1 mph - N/A   Clear
6:55 PM 78.8 °F - 60.8 °F 54% 29.83 in 10.0 mi SSW 3.5 mph - N/A   Clear
7:15 PM 78.8 °F - 60.8 °F 54% 29.83 in 10.0 mi SSW 4.6 mph - N/A   Clear
7:35 PM 77.0 °F - 60.8 °F 57% 29.83 in 10.0 mi South 4.6 mph - N/A   Clear
7:55 PM 75.2 °F - 60.8 °F 61% 29.83 in 10.0 mi Calm Calm - N/A   Clear
8:15 PM 73.4 °F - 62.6 °F 69% 29.83 in 10.0 mi South 4.6 mph - N/A   Clear
8:35 PM 73.4 °F - 62.6 °F 69% 29.84 in 10.0 mi SSE 5.8 mph - N/A   Clear
8:55 PM 73.4 °F - 62.6 °F 69% 29.83 in 10.0 mi SSE 10.4 mph - N/A   Clear
9:15 PM 73.4 °F - 66.2 °F 78% 29.84 in 10.0 mi South 9.2 mph - N/A   Clear
9:35 PM 73.4 °F - 66.2 °F 78% 29.84 in 10.0 mi South 12.7 mph - N/A   Clear
9:55 PM 73.4 °F - 66.2 °F 78% 29.85 in 10.0 mi South 12.7 mph - N/A   Clear
10:15 PM 73.4 °F - 66.2 °F 78% 29.85 in 10.0 mi South 12.7 mph 17.3 mph N/A   Clear
10:35 PM 73.4 °F - 66.2 °F 78% 29.85 in 10.0 mi South 12.7 mph 17.3 mph N/A   Clear
10:55 PM 73.4 °F - 66.2 °F 78% 29.84 in 10.0 mi South 11.5 mph - N/A   Clear
11:15 PM 73.4 °F - 66.2 °F 78% 29.84 in 10.0 mi South 12.7 mph - N/A   Clear
11:35 PM 71.6 °F - 66.2 °F 83% 29.84 in 10.0 mi South 9.2 mph 16.1 mph N/A   Clear
11:55 PM 71.6 °F - 64.4 °F 78% 29.84 in 10.0 mi South 6.9 mph - N/A   Clear